Location: Newark
(46.1292°N, 1.0086°W)
Time: 14:38:38
(UTC+00:00)

Vanguard 3 - Pass Details

Date: 23 November 2019
Orbit: 508 x 3263 km, 33.3° (Epoch: 06 December)

Event Time Altitude Azimuth Distance (km) Brightness Sun altitude
Rises 13:54:32 0° 246° (WSW) 6,705 12.7 17.8°
Reaches altitude 10° 13:58:50 10° 242° (WSW) 5,906 12.7 17.4°
Maximum altitude 14:17:18 53° 173° (S) 3,700 11.2 15.7°
Drops below altitude 10° 14:33:58 10° 103° (ESE) 5,397 11.1 13.9°
Sets 14:37:41 0° 99° (E) 6,119 11.3 13.5°
